| time (UTC) | temp C | wind direction | speed KPH | gust KPH | rain 1hr cm | rain 24hr cm | rain mn cm | humidity % | barometer mb |
| 20260506044733 | 7 | 90 | 6.4 | 9.7 | 0.00 | 0.03 | 0.00 | 84 | 1007.5 |
| 20260506044451 | 7 | 90 | 8.0 | 11.3 | 0.00 | 0.03 | 0.00 | 84 | 1007.2 |
| 20260506043958 | 7 | 109 | 9.7 | 11.3 | 0.00 | 0.03 | 0.00 | 83 | 1007.2 |
| 20260506043232 | 7 | 108 | 8.0 | 11.3 | 0.00 | 0.03 | 0.00 | 83 | 1007.2 |
| 20260506042732 | 7 | 106 | 8.0 | 11.3 | 0.00 | 0.03 | 0.00 | 83 | 1007.5 |
| 20260506042230 | 7 | 137 | 9.7 | 14.5 | 0.00 | 0.03 | 0.00 | 83 | 1007.5 |
| 20260506041731 | 7 | 131 | 9.7 | 14.5 | 0.00 | 0.03 | 0.00 | 82 | 1007.5 |
| 20260506041231 | 7 | 125 | 9.7 | 14.5 | 0.00 | 0.03 | 0.00 | 83 | 1007.3 |
| 20260506040731 | 7 | 122 | 8.0 | 11.3 | 0.00 | 0.03 | 0.00 | 82 | 1007.3 |
| 20260506040231 | 7 | 129 | 8.0 | 12.9 | 0.00 | 0.03 | 0.00 | 82 | 1007.3 |
| 20260506035727 | 7 | 146 | 6.4 | 12.9 | 0.00 | 0.03 | 0.03 | 82 | 1007.4 |
| 20260506035216 | 7 | 132 | 8.0 | 14.5 | 0.00 | 0.03 | 0.03 | 82 | 1007.4 |
| 20260506034711 | 7 | 129 | 8.0 | 14.5 | 0.00 | 0.03 | 0.03 | 82 | 1007.4 |
| 20260506034206 | 7 | 129 | 8.0 | 11.3 | 0.00 | 0.03 | 0.03 | 82 | 1007.5 |
| 20260506033703 | 7 | 132 | 9.7 | 11.3 | 0.00 | 0.03 | 0.03 | 82 | 1007.5 |
| 20260506033157 | 7 | 137 | 8.0 | 11.3 | 0.00 | 0.03 | 0.03 | 82 | 1007.5 |
| 20260506032646 | 7 | 127 | 8.0 | 11.3 | 0.00 | 0.03 | 0.03 | 82 | 1007.4 |
| 20260506032145 | 7 | 121 | 8.0 | 11.3 | 0.00 | 0.03 | 0.03 | 82 | 1007.4 |
| 20260506031855 | 7 | 125 | 6.4 | 9.7 | 0.00 | 0.03 | 0.03 | 81 | 1007.4 |
| 20260506031128 | 7 | 133 | 6.4 | 9.7 | 0.00 | 0.03 | 0.03 | 81 | 1007.4 |
| 20260506030628 | 7 | 131 | 6.4 | 11.3 | 0.00 | 0.03 | 0.03 | 81 | 1007.4 |
| 20260506030120 | 7 | 115 | 8.0 | 11.3 | 0.00 | 0.03 | 0.03 | 81 | 1007.4 |
| 20260506025615 | 7 | 126 | 8.0 | 11.3 | 0.00 | 0.03 | 0.03 | 81 | 1007.4 |
| 20260506025109 | 7 | 121 | 6.4 | 11.3 | 0.00 | 0.03 | 0.03 | 81 | 1007.4 |
| 20260506024559 | 7 | 123 | 6.4 | 11.3 | 0.00 | 0.03 | 0.03 | 81 | 1007.4 |
| 20260506024053 | 7 | 124 | 8.0 | 9.7 | 0.00 | 0.03 | 0.03 | 81 | 1007.4 |
| 20260506023551 | 7 | 128 | 9.7 | 12.9 | 0.00 | 0.03 | 0.03 | 82 | 1007.4 |
| 20260506023045 | 7 | 129 | 9.7 | 12.9 | 0.00 | 0.03 | 0.03 | 81 | 1007.5 |
| 20260506022539 | 7 | 132 | 9.7 | 12.9 | 0.00 | 0.03 | 0.03 | 82 | 1007.5 |
| 20260506022033 | 7 | 135 | 9.7 | 12.9 | 0.00 | 0.03 | 0.03 | 82 | 1007.5 |
| 20260506021522 | 7 | 143 | 9.7 | 12.9 | 0.00 | 0.03 | 0.03 | 81 | 1007.5 |
| 20260506021017 | 7 | 134 | 9.7 | 12.9 | 0.00 | 0.03 | 0.03 | 81 | 1007.5 |
| 20260506020511 | 7 | 131 | 9.7 | 11.3 | 0.00 | 0.03 | 0.03 | 81 | 1007.5 |
| 20260506020222 | 7 | 127 | 11.3 | 14.5 | 0.00 | 0.03 | 0.03 | 81 | 1007.4 |
| 20260506015503 | 7 | 124 | 11.3 | 14.5 | 0.00 | 0.03 | 0.03 | 81 | 1007.4 |
| 20260506014959 | 7 | 111 | 11.3 | 14.5 | 0.00 | 0.03 | 0.03 | 80 | 1007.4 |
| 20260506014447 | 7 | 111 | 9.7 | 12.9 | 0.00 | 0.03 | 0.03 | 81 | 1007.5 |
| 20260506013946 | 7 | 119 | 9.7 | 11.3 | 0.00 | 0.03 | 0.03 | 80 | 1007.5 |
| 20260506013439 | 7 | 128 | 9.7 | 12.9 | 0.00 | 0.03 | 0.03 | 81 | 1007.5 |
| 20260506012928 | 7 | 127 | 9.7 | 12.9 | 0.00 | 0.03 | 0.03 | 81 | 1007.1 |
| 20260506012427 | 7 | 125 | 9.7 | 11.3 | 0.00 | 0.03 | 0.03 | 80 | 1007.1 |
| 20260506011918 | 7 | 113 | 8.0 | 11.3 | 0.00 | 0.03 | 0.03 | 80 | 1007.1 |
| 20260506011416 | 7 | 122 | 8.0 | 9.7 | 0.00 | 0.03 | 0.03 | 80 | 1007.2 |
| 20260506010904 | 7 | 128 | 8.0 | 9.7 | 0.00 | 0.03 | 0.03 | 80 | 1007.2 |
| 20260506010403 | 7 | 125 | 6.4 | 9.7 | 0.00 | 0.03 | 0.03 | 80 | 1007.2 |
| 20260506005856 | 7 | 113 | 8.0 | 9.7 | 0.00 | 0.03 | 0.03 | 79 | 1007.0 |
| 20260506005347 | 7 | 113 | 8.0 | 9.7 | 0.00 | 0.03 | 0.03 | 79 | 1007.0 |
| 20260506004841 | 7 | 115 | 8.0 | 11.3 | 0.00 | 0.03 | 0.03 | 78 | 1007.0 |
| 20260506004336 | 7 | 128 | 8.0 | 11.3 | 0.00 | 0.03 | 0.03 | 78 | 1007.0 |
| 20260506003825 | 7 | 138 | 8.0 | 11.3 | 0.00 | 0.03 | 0.03 | 78 | 1007.0 |
| 20260506003323 | 8 | 127 | 9.7 | 11.3 | 0.00 | 0.03 | 0.03 | 78 | 1007.0 |
| 20260506002817 | 8 | 134 | 9.7 | 11.3 | 0.00 | 0.03 | 0.03 | 78 | 1007.0 |
| 20260506002307 | 8 | 129 | 8.0 | 11.3 | 0.00 | 0.03 | 0.03 | 78 | 1007.0 |
| 20260506002040 | 8 | 134 | 8.0 | 9.7 | 0.00 | 0.03 | 0.03 | 78 | 1007.0 |
| 20260506001255 | 8 | 139 | 6.4 | 9.7 | 0.00 | 0.03 | 0.03 | 77 | 1007.0 |
| 20260506001019 | 8 | 156 | 8.0 | 11.3 | 0.00 | 0.03 | 0.03 | 77 | 1007.0 |
| 20260506000247 | 8 | 163 | 8.0 | 11.3 | 0.00 | 0.03 | 0.03 | 77 | 1007.0 |
| 20260506000000 | 8 | 165 | 8.0 | 11.3 | 0.00 | 0.03 | 0.03 | 76 | 1007.0 |
| 20260505235451 | 8 | 152 | 9.7 | 12.9 | 0.00 | 0.03 | 0.03 | 76 | 1007.0 |
| 20260505234724 | 8 | 156 | 9.7 | 12.9 | 0.00 | 0.03 | 0.03 | 76 | 1007.0 |
| 20260505234440 | 8 | 159 | 9.7 | 12.9 | 0.00 | 0.03 | 0.03 | 75 | 1006.9 |
| 20260505233713 | 8 | 159 | 8.0 | 11.3 | 0.00 | 0.03 | 0.03 | 75 | 1006.9 |
| 20260505233212 | 9 | 156 | 8.0 | 11.3 | 0.00 | 0.03 | 0.03 | 74 | 1006.9 |
| 20260505232925 | 9 | 145 | 8.0 | 11.3 | 0.00 | 0.03 | 0.03 | 74 | 1006.5 |
| 20260505232422 | 9 | 145 | 9.7 | 12.9 | 0.00 | 0.03 | 0.03 | 74 | 1006.5 |
| 20260505231653 | 9 | 148 | 9.7 | 12.9 | 0.00 | 0.03 | 0.03 | 73 | 1006.5 |
| 20260505231143 | 9 | 162 | 6.4 | 11.3 | 0.00 | 0.03 | 0.03 | 73 | 1006.7 |
| 20260505230642 | 9 | 167 | 6.4 | 8.0 | 0.00 | 0.03 | 0.03 | 73 | 1006.7 |
| 20260505230130 | 9 | 176 | 6.4 | 9.7 | 0.00 | 0.03 | 0.03 | 72 | 1006.8 |
| 20260505225836 | 9 | 150 | 8.0 | 11.3 | 0.00 | 0.03 | 0.03 | 72 | 1006.8 |
| 20260505225111 | 10 | 142 | 8.0 | 11.3 | 0.00 | 0.03 | 0.03 | 71 | 1006.8 |
| 20260505224829 | 10 | 153 | 8.0 | 9.7 | 0.00 | 0.03 | 0.03 | 72 | 1006.9 |
| 20260505224055 | 10 | 155 | 6.4 | 9.7 | 0.00 | 0.03 | 0.03 | 70 | 1006.9 |
| 20260505223554 | 10 | 168 | 3.2 | 9.7 | 0.00 | 0.03 | 0.03 | 71 | 1006.9 |
| 20260505223043 | 10 | 148 | 4.8 | 8.0 | 0.00 | 0.03 | 0.03 | 69 | 1007.0 |
| 20260505222540 | 10 | 205 | 4.8 | 8.0 | 0.00 | 0.03 | 0.03 | 70 | 1007.0 |
| 20260505222035 | 10 | 158 | 6.4 | 9.7 | 0.00 | 0.03 | 0.03 | 69 | 1007.0 |
| 20260505221529 | 10 | 205 | 6.4 | 11.3 | 0.00 | 0.03 | 0.03 | 68 | 1007.0 |
| 20260505221023 | 10 | 168 | 4.8 | 11.3 | 0.00 | 0.03 | 0.03 | 70 | 1007.0 |
| 20260505220517 | 10 | 164 | 4.8 | 9.7 | 0.00 | 0.03 | 0.03 | 69 | 1007.0 |
| 20260505220011 | 10 | 173 | 6.4 | 9.7 | 0.00 | 0.03 | 0.03 | 71 | 1006.9 |
| 20260505215501 | 10 | 161 | 6.4 | 9.7 | 0.00 | 0.03 | 0.03 | 69 | 1006.9 |
| 20260505214959 | 10 | 142 | 6.4 | 9.7 | 0.00 | 0.03 | 0.03 | 69 | 1006.9 |
| 20260505214453 | 10 | 119 | 6.4 | 11.3 | 0.00 | 0.03 | 0.03 | 68 | 1007.0 |
| 20260505213944 | 10 | 130 | 6.4 | 9.7 | 0.00 | 0.03 | 0.03 | 67 | 1007.0 |
| 20260505213710 | 10 | 161 | 4.8 | 8.0 | 0.00 | 0.03 | 0.03 | 67 | 1007.0 |
| 20260505212931 | 10 | 148 | 4.8 | 8.0 | 0.00 | 0.03 | 0.03 | 66 | 1007.0 |
| 20260505212429 | 10 | 165 | 6.4 | 9.7 | 0.00 | 0.03 | 0.03 | 67 | 1007.0 |
| 20260505211919 | 10 | 205 | 6.4 | 9.7 | 0.00 | 0.03 | 0.03 | 65 | 1007.0 |
| 20260505211639 | 10 | 229 | 4.8 | 11.3 | 0.00 | 0.03 | 0.03 | 66 | 1006.9 |
| 20260505210911 | 10 | 179 | 6.4 | 11.3 | 0.00 | 0.03 | 0.03 | 64 | 1006.9 |
| 20260505210400 | 10 | 234 | 6.4 | 9.7 | 0.00 | 0.03 | 0.03 | 65 | 1006.9 |
| 20260505205900 | 10 | 199 | 6.4 | 11.3 | 0.00 | 0.03 | 0.03 | 66 | 1007.0 |
| 20260505205353 | 10 | 221 | 8.0 | 11.3 | 0.00 | 0.03 | 0.03 | 67 | 1007.0 |
| 20260505204847 | 10 | 246 | 8.0 | 11.3 | 0.00 | 0.03 | 0.03 | 65 | 1007.0 |
| 20260505204337 | 10 | 240 | 6.4 | 11.3 | 0.00 | 0.03 | 0.03 | 65 | 1007.0 |
| 20260505203831 | 9 | 239 | 4.8 | 9.7 | 0.00 | 0.03 | 0.03 | 66 | 1007.0 |
| 20260505203324 | 9 | 215 | 6.4 | 9.7 | 0.00 | 0.03 | 0.03 | 62 | 1007.0 |
| 20260505202823 | 9 | 231 | 6.4 | 9.7 | 0.00 | 0.03 | 0.03 | 64 | 1006.9 |
| 20260505202317 | 9 | 190 | 6.4 | 9.7 | 0.00 | 0.03 | 0.03 | 64 | 1006.9 |
| 20260505201811 | 9 | 215 | 3.2 | 9.7 | 0.00 | 0.03 | 0.03 | 64 | 1006.9 |
| 20260505201305 | 9 | 215 | 3.2 | 8.0 | 0.00 | 0.03 | 0.03 | 67 | 1007.0 |
| 20260505200754 | 8 | 316 | 3.2 | 6.4 | 0.00 | 0.03 | 0.03 | 65 | 1007.0 |
| 20260505200249 | 8 | 229 | 4.8 | 8.0 | 0.00 | 0.03 | 0.03 | 64 | 1007.0 |
| 20260505195742 | 8 | 255 | 4.8 | 9.7 | 0.00 | 0.03 | 0.03 | 66 | 1006.9 |
| 20260505195241 | 8 | 308 | 4.8 | 9.7 | 0.00 | 0.03 | 0.03 | 65 | 1006.9 |
| 20260505194735 | 8 | 290 | 3.2 | 9.7 | 0.00 | 0.03 | 0.03 | 65 | 1006.9 |
| 20260505194229 | 8 | 242 | 4.8 | 11.3 | 0.00 | 0.03 | 0.03 | 66 | 1006.8 |
| 20260505193719 | 8 | 289 | 6.4 | 12.9 | 0.00 | 0.03 | 0.03 | 66 | 1006.8 |
| 20260505193213 | 8 | 313 | 8.0 | 12.9 | 0.00 | 0.03 | 0.03 | 69 | 1006.8 |
| 20260505192711 | 8 | 308 | 9.7 | 17.7 | 0.00 | 0.03 | 0.03 | 68 | 1006.7 |
| 20260505192210 | 8 | 339 | 8.0 | 17.7 | 0.00 | 0.03 | 0.03 | 68 | 1006.7 |
| 20260505192148 | 8 | 319 | 8.0 | 12.9 | 0.00 | 0.03 | 0.03 | 69 | 1006.7 |
| 20260505191209 | 8 | 331 | 11.3 | 16.1 | 0.00 | 0.03 | 0.03 | 69 | 1006.4 |
| 20260505190930 | 8 | 314 | 12.9 | 16.1 | 0.00 | 0.03 | 0.03 | 69 | 1006.4 |
| 20260505190207 | 8 | 290 | 11.3 | 17.7 | 0.00 | 0.03 | 0.03 | 67 | 1006.4 |
| 20260505185706 | 8 | 302 | 12.9 | 17.7 | 0.00 | 0.03 | 0.03 | 70 | 1006.5 |
| 20260505185208 | 8 | 310 | 12.9 | 17.7 | 0.00 | 0.03 | 0.03 | 70 | 1006.5 |
| 20260505184706 | 8 | 315 | 14.5 | 20.9 | 0.00 | 0.03 | 0.03 | 70 | 1006.5 |
| 20260505184206 | 8 | 317 | 14.5 | 20.9 | 0.00 | 0.03 | 0.03 | 69 | 1006.5 |
| 20260505183708 | 8 | 327 | 12.9 | 19.3 | 0.00 | 0.03 | 0.03 | 70 | 1006.5 |
| 20260505183207 | 8 | 316 | 12.9 | 19.3 | 0.00 | 0.03 | 0.03 | 69 | 1006.5 |
| 20260505182707 | 9 | 310 | 9.7 | 17.7 | 0.00 | 0.03 | 0.03 | 68 | 1006.0 |
| 20260505182207 | 9 | 341 | 11.3 | 17.7 | 0.00 | 0.03 | 0.03 | 68 | 1006.0 |
| 20260505181707 | 9 | 313 | 11.3 | 17.7 | 0.00 | 0.03 | 0.03 | 68 | 1006.0 |
| 20260505181207 | 9 | 313 | 8.0 | 16.1 | 0.00 | 0.03 | 0.03 | 68 | 1005.9 |
| 20260505180707 | 9 | 340 | 6.4 | 14.5 | 0.00 | 0.03 | 0.03 | 70 | 1005.9 |
| 20260505180205 | 9 | 0 | 9.7 | 14.5 | 0.00 | 0.03 | 0.03 | 69 | 1005.9 |
| 20260505175659 | 8 | 271 | 9.7 | 14.5 | 0.00 | 0.03 | 0.03 | 71 | 1005.8 |
| 20260505175159 | 8 | 259 | 9.7 | 14.5 | 0.00 | 0.03 | 0.03 | 72 | 1005.8 |
| 20260505174657 | 8 | 304 | 9.7 | 14.5 | 0.00 | 0.03 | 0.03 | 71 | 1005.8 |
| 20260505174427 | 8 | 311 | 9.7 | 16.1 | 0.03 | 0.03 | 0.03 | 70 | 1005.6 |
| 20260505173657 | 8 | 260 | 9.7 | 16.1 | 0.03 | 0.03 | 0.03 | 74 | 1005.6 |
| 20260505173157 | 8 | 314 | 12.9 | 19.3 | 0.03 | 0.03 | 0.03 | 72 | 1005.6 |
| 20260505172657 | 8 | 291 | 14.5 | 19.3 | 0.03 | 0.03 | 0.03 | 72 | 1005.5 |
| 20260505172155 | 8 | 321 | 11.3 | 17.7 | 0.03 | 0.03 | 0.03 | 73 | 1005.5 |
| 20260505171655 | 8 | 317 | 8.0 | 16.1 | 0.03 | 0.03 | 0.03 | 72 | 1005.5 |
| 20260505171155 | 7 | 280 | 9.7 | 17.7 | 0.03 | 0.03 | 0.03 | 73 | 1005.5 |
| 20260505170655 | 7 | 253 | 11.3 | 17.7 | 0.03 | 0.03 | 0.03 | 73 | 1005.5 |
| 20260505170155 | 7 | 279 | 12.9 | 17.7 | 0.03 | 0.03 | 0.03 | 73 | 1005.5 |
| 20260505165655 | 7 | 300 | 14.5 | 19.3 | 0.03 | 0.03 | 0.03 | 73 | 1005.3 |
| 20260505165155 | 7 | 323 | 14.5 | 20.9 | 0.03 | 0.03 | 0.03 | 75 | 1005.3 |
| 20260505164655 | 7 | 309 | 17.7 | 29.0 | 0.03 | 0.03 | 0.03 | 76 | 1005.3 |
| 20260505164155 | 7 | 285 | 19.3 | 29.0 | 0.00 | 0.00 | 0.00 | 76 | 1005.4 |
| 20260505163653 | 7 | 306 | 19.3 | 25.7 | 0.00 | 0.00 | 0.00 | 75 | 1005.4 |
| 20260505163153 | 8 | 301 | 19.3 | 25.7 | 0.00 | 0.00 | 0.00 | 74 | 1005.4 |
| 20260505162653 | 8 | 277 | 19.3 | 25.7 | 0.00 | 0.00 | 0.00 | 73 | 1005.4 |
| 20260505162153 | 8 | 306 | 19.3 | 27.4 | 0.00 | 0.00 | 0.00 | 73 | 1005.4 |
| 20260505161653 | 8 | 302 | 17.7 | 27.4 | 0.00 | 0.00 | 0.00 | 73 | 1005.4 |
| 20260505161152 | 8 | 295 | 14.5 | 27.4 | 0.00 | 0.00 | 0.00 | 71 | 1005.1 |
| 20260505160654 | 8 | 0 | 14.5 | 24.1 | 0.00 | 0.00 | 0.00 | 72 | 1005.1 |
| 20260505160153 | 8 | 338 | 16.1 | 24.1 | 0.00 | 0.00 | 0.00 | 72 | 1005.1 |
| 20260505153152 | 9 | 307 | 22.5 | 33.8 | 0.00 | 0.00 | 0.00 | 70 | 1005.3 |
| 20260505152652 | 9 | 308 | 19.3 | 33.8 | 0.00 | 0.00 | 0.00 | 69 | 1004.8 |
| 20260505152152 | 10 | 304 | 16.1 | 27.4 | 0.00 | 0.00 | 0.00 | 67 | 1004.8 |
| 20260505151652 | 11 | 286 | 14.5 | 25.7 | 0.00 | 0.00 | 0.00 | 68 | 1004.8 |
| 20260505151144 | 11 | 313 | 16.1 | 30.6 | 0.00 | 0.00 | 0.00 | 69 | 1004.5 |
| 20260505150639 | 11 | 319 | 17.7 | 30.6 | 0.00 | 0.00 | 0.00 | 70 | 1004.5 |
| 20260505150129 | 10 | 309 | 19.3 | 29.0 | 0.00 | 0.00 | 0.00 | 71 | 1001.9 |
| 20260505140549 | 10 | 313 | 11.3 | 22.5 | 0.00 | 0.00 | 0.00 | 69 | 1003.2 |
| 20260505124952 | 7 | 347 | 20.9 | 29.0 | 0.00 | 0.00 | 0.00 | 75 | 1002.6 |
| 20260505124710 | 7 | 348 | 19.3 | 33.8 | 0.00 | 0.00 | 0.00 | 77 | 1002.6 |
| 20260505123952 | 7 | 346 | 17.7 | 33.8 | 0.00 | 0.00 | 0.00 | 78 | 1002.6 |
| 20260505123448 | 7 | 329 | 16.1 | 27.4 | 0.00 | 0.00 | 0.00 | 78 | 1002.6 |
| 20260505122936 | 7 | 347 | 14.5 | 29.0 | 0.00 | 0.00 | 0.00 | 79 | 1002.1 |
| 20260505122437 | 7 | 341 | 16.1 | 33.8 | 0.00 | 0.00 | 0.00 | 79 | 1002.1 |
| 20260505121936 | 7 | 339 | 16.1 | 33.8 | 0.00 | 0.00 | 0.00 | 79 | 1002.1 |
| 20260505121437 | 7 | 352 | 16.1 | 25.7 | 0.00 | 0.00 | 0.00 | 80 | 1001.8 |
| 20260505120937 | 7 | 327 | 16.1 | 25.7 | 0.00 | 0.00 | 0.00 | 80 | 1001.8 |
| 20260505120436 | 7 | 338 | 17.7 | 30.6 | 0.00 | 0.00 | 0.00 | 81 | 1001.8 |
| 20260505115937 | 7 | 312 | 17.7 | 30.6 | 0.00 | 0.00 | 0.00 | 80 | 1001.5 |
| 20260505115701 | 7 | 336 | 19.3 | 29.0 | 0.00 | 0.00 | 0.00 | 81 | 1001.5 |
| 20260505114936 | 7 | 321 | 20.9 | 29.0 | 0.00 | 0.00 | 0.00 | 80 | 1001.5 |
| 20260505114431 | 7 | 352 | 19.3 | 33.8 | 0.00 | 0.00 | 0.00 | 81 | 1001.3 |
| 20260505113920 | 7 | 344 | 17.7 | 33.8 | 0.00 | 0.00 | 0.00 | 82 | 1001.3 |
| 20260505113417 | 7 | 334 | 17.7 | 29.0 | 0.00 | 0.00 | 0.00 | 83 | 1001.3 |
| 20260505112916 | 7 | 343 | 17.7 | 30.6 | 0.00 | 0.00 | 0.00 | 84 | 1000.8 |
| 20260505112416 | 7 | 319 | 16.1 | 33.8 | 0.00 | 0.00 | 0.00 | 85 | 1000.8 |
| 20260505111917 | 7 | 326 | 16.1 | 33.8 | 0.00 | 0.00 | 0.00 | 85 | 1000.8 |
| 20260505111417 | 7 | 350 | 20.9 | 33.8 | 0.00 | 0.00 | 0.00 | 85 | 1000.5 |
| 20260505110917 | 7 | 333 | 16.1 | 33.8 | 0.00 | 0.00 | 0.00 | 86 | 1000.5 |
| 20260505110417 | 8 | 316 | 12.9 | 22.5 | 0.00 | 0.00 | 0.00 | 87 | 1000.5 |
| 20260505101637 | 10 | 311 | 24.1 | 35.4 | 0.00 | 0.03 | 0.00 | 88 | 998.9 |
| 20260505100907 | 11 | 299 | 19.3 | 29.0 | 0.00 | 0.03 | 0.00 | 87 | 998.9 |
| 20260505100357 | 11 | 303 | 16.1 | 24.1 | 0.00 | 0.03 | 0.00 | 87 | 998.9 |
| 20260505095856 | 11 | 295 | 14.5 | 24.1 | 0.00 | 0.03 | 0.00 | 86 | 998.9 |
| 20260505095357 | 11 | 248 | 14.5 | 25.7 | 0.00 | 0.03 | 0.00 | 86 | 998.9 |
| 20260505094857 | 12 | 272 | 16.1 | 25.7 | 0.00 | 0.03 | 0.00 | 86 | 998.9 |
| 20260505094356 | 12 | 295 | 16.1 | 25.7 | 0.00 | 0.03 | 0.00 | 86 | 998.4 |
| 20260505093856 | 12 | 261 | 17.7 | 25.7 | 0.00 | 0.03 | 0.00 | 85 | 998.4 |
| 20260505093356 | 12 | 282 | 17.7 | 25.7 | 0.00 | 0.03 | 0.00 | 85 | 998.4 |
| 20260505092857 | 13 | 244 | 16.1 | 25.7 | 0.00 | 0.03 | 0.00 | 84 | 997.9 |
| 20260505092357 | 13 | 286 | 17.7 | 27.4 | 0.00 | 0.03 | 0.00 | 84 | 997.9 |
| 20260505091853 | 13 | 252 | 20.9 | 27.4 | 0.00 | 0.03 | 0.00 | 83 | 997.9 |
| 20260505091353 | 14 | 247 | 19.3 | 27.4 | 0.00 | 0.03 | 0.00 | 82 | 997.7 |
| 20260505090853 | 14 | 223 | 17.7 | 27.4 | 0.00 | 0.03 | 0.00 | 82 | 997.7 |
| 20260505090352 | 14 | 265 | 17.7 | 27.4 | 0.00 | 0.03 | 0.00 | 82 | 997.7 |
| 20260505085853 | 14 | 236 | 14.5 | 27.4 | 0.00 | 0.03 | 0.00 | 83 | 997.8 |
| 20260505085353 | 14 | 246 | 14.5 | 20.9 | 0.00 | 0.03 | 0.00 | 82 | 997.8 |
| 20260505084853 | 14 | 238 | 16.1 | 20.9 | 0.00 | 0.03 | 0.00 | 82 | 997.8 |
| 20260505084613 | 14 | 234 | 16.1 | 20.9 | 0.00 | 0.03 | 0.00 | 82 | 997.3 |
| 20260505083853 | 14 | 215 | 14.5 | 20.9 | 0.00 | 0.03 | 0.00 | 82 | 997.3 |
| 20260505083347 | 14 | 238 | 16.1 | 20.9 | 0.00 | 0.03 | 0.00 | 82 | 997.3 |
| 20260505082835 | 14 | 210 | 14.5 | 20.9 | 0.00 | 0.03 | 0.00 | 82 | 997.4 |
| 20260505082322 | 14 | 210 | 14.5 | 19.3 | 0.00 | 0.03 | 0.00 | 82 | 997.4 |
| 20260505081813 | 15 | 205 | 16.1 | 20.9 | 0.00 | 0.03 | 0.00 | 82 | 997.4 |
| 20260505081313 | 15 | 215 | 16.1 | 24.1 | 0.00 | 0.03 | 0.00 | 81 | 997.5 |
| 20260505081038 | 15 | 215 | 17.7 | 24.1 | 0.00 | 0.03 | 0.00 | 81 | 997.5 |
| 20260505080308 | 15 | 198 | 17.7 | 24.1 | 0.00 | 0.03 | 0.00 | 81 | 997.5 |
| 20260505080041 | 15 | 210 | 17.7 | 24.1 | 0.00 | 0.03 | 0.00 | 81 | 997.6 |
| 20260505075308 | 15 | 210 | 17.7 | 24.1 | 0.00 | 0.03 | 0.00 | 81 | 997.6 |
| 20260505074808 | 15 | 210 | 17.7 | 22.5 | 0.00 | 0.03 | 0.00 | 81 | 997.6 |
| 20260505074308 | 15 | 205 | 17.7 | 22.5 | 0.00 | 0.03 | 0.00 | 81 | 997.8 |
| 20260505073806 | 15 | 210 | 17.7 | 22.5 | 0.00 | 0.03 | 0.00 | 81 | 997.8 |
| 20260505073306 | 15 | 205 | 17.7 | 25.7 | 0.00 | 0.03 | 0.00 | 81 | 997.8 |
| 20260505073035 | 15 | 201 | 19.3 | 27.4 | 0.00 | 0.03 | 0.00 | 81 | 997.9 |
| 20260505072525 | 15 | 222 | 19.3 | 27.4 | 0.00 | 0.03 | 0.00 | 80 | 997.9 |
| 20260505071804 | 15 | 220 | 20.9 | 32.2 | 0.00 | 0.03 | 0.00 | 80 | 997.9 |
| 20260505071304 | 15 | 201 | 20.9 | 32.2 | 0.00 | 0.03 | 0.00 | 80 | 998.0 |
| 20260505070757 | 15 | 205 | 19.3 | 25.7 | 0.00 | 0.03 | 0.00 | 80 | 998.0 |
| 20260505070256 | 15 | 233 | 19.3 | 25.7 | 0.00 | 0.03 | 0.00 | 80 | 998.0 |
| 20260505065750 | 15 | 205 | 19.3 | 25.7 | 0.00 | 0.03 | 0.00 | 80 | 998.3 |
| 20260505065240 | 15 | 205 | 20.9 | 25.7 | 0.00 | 0.03 | 0.00 | 80 | 998.3 |
| 20260505064739 | 15 | 196 | 22.5 | 30.6 | 0.00 | 0.03 | 0.00 | 80 | 998.3 |
| 20260505064233 | 15 | 199 | 20.9 | 30.6 | 0.00 | 0.03 | 0.00 | 80 | 998.4 |
| 20260505063726 | 15 | 194 | 19.3 | 29.0 | 0.00 | 0.03 | 0.00 | 80 | 998.4 |
| 20260505063216 | 15 | 210 | 20.9 | 29.0 | 0.00 | 0.03 | 0.00 | 79 | 998.4 |
| 20260505062709 | 15 | 196 | 22.5 | 29.0 | 0.00 | 0.03 | 0.00 | 79 | 998.4 |
| 20260505062204 | 15 | 198 | 22.5 | 32.2 | 0.00 | 0.03 | 0.00 | 79 | 998.4 |
| 20260505061703 | 15 | 210 | 24.1 | 33.8 | 0.00 | 0.03 | 0.00 | 79 | 998.4 |
| 20260505061156 | 15 | 205 | 25.7 | 38.6 | 0.00 | 0.03 | 0.00 | 79 | 998.4 |
| 20260505060650 | 15 | 205 | 29.0 | 38.6 | 0.00 | 0.03 | 0.00 | 78 | 998.4 |
| 20260505060138 | 15 | 205 | 29.0 | 37.0 | 0.00 | 0.03 | 0.00 | 78 | 998.5 |
| 20260505055533 | 15 | 199 | 29.0 | 40.2 | 0.00 | 0.03 | 0.00 | 78 | 998.5 |
| 20260505055253 | 15 | 205 | 29.0 | 40.2 | 0.00 | 0.03 | 0.00 | 78 | 998.5 |
| 20260505054521 | 15 | 219 | 29.0 | 40.2 | 0.00 | 0.03 | 0.00 | 79 | 998.4 |
| 20260505054241 | 15 | 196 | 30.6 | 40.2 | 0.00 | 0.03 | 0.00 | 78 | 998.4 |
| 20260505053515 | 15 | 205 | 29.0 | 40.2 | 0.00 | 0.03 | 0.00 | 79 | 998.4 |
| 20260505053006 | 15 | 196 | 27.4 | 38.6 | 0.00 | 0.03 | 0.00 | 79 | 998.4 |
| 20260505052454 | 15 | 191 | 25.7 | 37.0 | 0.00 | 0.03 | 0.00 | 79 | 998.4 |
| 20260505051953 | 15 | 205 | 24.1 | 35.4 | 0.00 | 0.03 | 0.00 | 79 | 998.4 |
| 20260505051441 | 15 | 191 | 27.4 | 33.8 | 0.00 | 0.03 | 0.00 | 79 | 998.4 |
| 20260505050941 | 15 | 210 | 25.7 | 37.0 | 0.00 | 0.03 | 0.00 | 79 | 998.4 |
| 20260505050435 | 15 | 199 | 25.7 | 37.0 | 0.00 | 0.03 | 0.00 | 79 | 998.4 |